FW0308 Weather Reports


time (UTC)temp
F
wind
direction
speed
knots
gust
knots
rain 1hr
in
rain 24hr
in
rain mn
in
humidity
%
barometer
mb
20260504214551 69 285 0.0 0.0 0.00 0.00 0.00 39 1010.0
20260504213051 69 277 0.0 0.0 0.00 0.00 0.00 38 1010.1
20260504211542 69 297 0.0 0.0 0.00 0.00 0.00 38 1010.4
20260504210052 69 209 0.0 0.0 0.00 0.00 0.00 38 1010.5
20260504204618 69 239 0.0 0.0 0.00 0.00 0.00 38 1010.7
20260504203038 69 234 0.0 0.9 0.00 0.00 0.00 39 1010.8
20260504201536 69 237 0.0 0.0 0.00 0.00 0.00 36 1010.9
20260504200039 69 263 0.0 5.2 0.00 0.00 0.00 38 1011.0
20260504194543 70 237 0.0 0.0 0.00 0.00 0.00 38 1011.2
20260504193032 70 143 0.0 0.0 0.00 0.00 0.00 38 1011.4
20260504191529 69 236 0.0 2.6 0.00 0.00 0.00 37 1011.3
20260504190026 69 136 0.0 3.5 0.00 0.00 0.00 38 1011.4
20260504184525 69 257 0.0 7.0 0.00 0.00 0.00 39 1011.3
20260504183026 68 257 0.0 6.1 0.00 0.00 0.00 38 1011.6
20260504181520 68 231 0.0 0.9 0.00 0.00 0.00 37 1011.7
20260504180018 68 279 0.0 4.3 0.00 0.00 0.00 38 1011.8
20260504174516 69 226 0.0 7.8 0.00 0.00 0.00 38 1012.1
20260504173014 68 257 0.0 0.0 0.00 0.00 0.00 37 1012.1
20260504171532 68 219 0.0 6.1 0.00 0.00 0.00 39 1012.2
20260504081550 45 236 0.0 0.0 0.00 0.00 0.00 61 1015.4
20260504044541 45 233 0.0 0.0 0.00 0.00 0.00 61 1015.1
20260504043039 45 196 0.0 0.0 0.00 0.00 0.00 62 1015.0
20260504041534 45 226 0.0 0.0 0.00 0.00 0.00 61 1014.9
20260504040032 45 240 0.0 0.0 0.00 0.00 0.00 62 1014.9
20260504034535 44 228 0.0 0.0 0.00 0.00 0.00 63 1014.7
20260504033031 43 231 0.0 0.0 0.00 0.00 0.00 65 1014.7
20260504031531 43 213 0.0 0.0 0.00 0.00 0.00 66 1014.8
20260504030038 43 212 0.0 0.0 0.00 0.00 0.00 66 1014.7
20260504024530 43 212 0.0 0.0 0.00 0.00 0.00 65 1014.8
20260504023030 43 209 0.0 0.0 0.00 0.00 0.00 64 1014.8
20260504021533 43 198 0.0 0.0 0.00 0.00 0.00 64 1014.9
20260504020027 44 198 0.0 0.0 0.00 0.00 0.00 64 1014.9
20260504014528 44 205 0.0 0.0 0.00 0.00 0.00 63 1014.8
20260504013027 44 205 0.0 0.0 0.00 0.00 0.00 62 1014.6
20260504011526 45 200 0.0 0.0 0.00 0.00 0.00 61 1014.5
20260504010026 45 201 0.0 0.0 0.00 0.00 0.00 60 1014.4
20260504004526 46 201 0.0 0.0 0.00 0.00 0.00 60 1014.4
20260504003025 47 201 0.0 0.0 0.00 0.00 0.00 58 1014.3
20260504001525 48 268 0.0 0.0 0.00 0.00 0.00 56 1014.1
20260504000023 49 269 0.0 0.0 0.00 0.00 0.00 54 1014.0
20260503234538 51 269 0.0 0.0 0.00 0.00 0.00 51 1013.9
20260503233023 52 276 0.0 0.0 0.00 0.00 0.00 49 1013.7
20260503231526 53 283 0.0 0.0 0.00 0.00 0.00 46 1013.7
20260503230022 52 295 0.0 0.0 0.00 0.00 0.00 46 1013.7
20260503224522 53 271 0.0 0.0 0.00 0.00 0.00 45 1013.7
20260503223021 53 220 0.0 0.0 0.00 0.00 0.00 46 1013.6
20260503221523 53 239 0.0 0.0 0.00 0.00 0.00 44 1013.6
20260503220037 53 278 0.0 0.0 0.00 0.00 0.00 43 1013.7